Fort Stockton, TX

11:56 PM CDT on May 25, 2017 (GMT -0500)
Fort Stockton-Pecos County

Weather History for KFST - February, 2014

Change the Weather History Date:

Sunday, February 9, 2014

  Actual Average Record
Temperature  
Mean Temperature 64 °F -  
Max Temperature 81 °F 61 °F 84 °F (2000)
Min Temperature 43 °F 37 °F 14 °F (2011)
Growing Degree Days 14 (Base 50)    
Moisture  
Dew Point 20 °F    
Average Humidity 22    
Maximum Humidity 58    
Minimum Humidity 10    
Precipitation  
Precipitation 0.00 in - - ()
Sea Level Pressure  
Sea Level Pressure 29.91 in    
Wind  
Wind Speed 12 mph (SW)    
Max Wind Speed 15 mph    
Max Gust Speed 18 mph    
Visibility 10 miles    
Events      
Averages and records for this station are not official NWS values.
T = Trace of Precipitation, MM = Missing Value Source: NWS Daily Summary

Daily Weather History Graph

Daily Weather History Graph

Search for Another Location

Airport or City:

Trip Planner

Search our weather history database for the weather conditions in past years. The results will help you decide how hot, cold, wet, or windy it might be!

Date:

Astronomy

Feb. 09, 2014 Rise Set
Actual Time 7:37 AM CST 6:34 PM CST
Civil Twilight 7:12 AM CST 6:59 PM CST
Nautical Twilight 6:44 AM CST 7:27 PM CST
Astronomical Twilight 6:15 AM CST 7:56 PM CST
Moon 2:22 PM CST (2/9) 3:38 AM CST (2/9)
Length of Visible Light 11h 46m
Length of Day
10h 56m
Waxing Gibbous, 77% of the Moon is Illuminated
Feb 9
Waxing Gibbous
Feb 14
Full
Feb 22
Last Quarter
Mar 1
New
Mar 8
First Quarter

Hourly Weather History & Observations

Time (CST) Temp. Windchill Dew Point Humidity Pressure Visibility Wind Dir Wind Speed Gust Speed Precip Events Conditions
12:53 AM 51.1 °F - 19.0 °F 28% 30.01 in 10.0 mi SSW 12.7 mph - N/A   Clear
1:53 AM 50.0 °F - 18.0 °F 28% 30.00 in 10.0 mi SW 13.8 mph - N/A   Clear
2:53 AM 50.0 °F - 18.0 °F 28% 29.99 in 10.0 mi SW 12.7 mph - N/A   Clear
3:53 AM 50.0 °F - 18.0 °F 28% 29.97 in 10.0 mi SSW 12.7 mph - N/A   Clear
4:53 AM 48.9 °F - 18.0 °F 29% 29.96 in 10.0 mi SW 12.7 mph - N/A   Clear
5:53 AM 50.0 °F - 18.0 °F 28% 29.96 in 10.0 mi SW 13.8 mph - N/A   Clear
6:53 AM 50.0 °F - 18.0 °F 28% 29.97 in 10.0 mi SSW 15.0 mph - N/A   Clear
7:53 AM 53.1 °F - 18.0 °F 25% 29.98 in 10.0 mi SSW 13.8 mph - N/A   Clear
8:53 AM 57.0 °F - 19.9 °F 24% 29.99 in 10.0 mi SSW 13.8 mph - N/A   Clear
9:53 AM 66.0 °F - 21.0 °F 18% 30.00 in 10.0 mi SW 15.0 mph - N/A   Clear
10:53 AM 72.0 °F - 21.0 °F 15% 29.98 in 10.0 mi SW 11.5 mph - N/A   Clear
11:53 AM 75.0 °F - 19.9 °F 13% 29.95 in 10.0 mi WSW 9.2 mph - N/A   Clear
12:53 PM 78.1 °F - 19.0 °F 11% 29.89 in 10.0 mi South 9.2 mph - N/A   Clear
1:53 PM 79.0 °F - 17.1 °F 10% 29.85 in 10.0 mi SSW 9.2 mph - N/A   Clear
2:53 PM 81.0 °F - 18.0 °F 10% 29.81 in 10.0 mi West 12.7 mph 18.4 mph N/A   Clear
3:53 PM 81.0 °F - 19.0 °F 10% 29.79 in 10.0 mi NNW 11.5 mph - N/A   Clear
4:53 PM 80.1 °F - 19.9 °F 11% 29.78 in 10.0 mi NNW 10.4 mph - N/A   Clear
5:53 PM 77.0 °F - 24.1 °F 14% 29.81 in 10.0 mi WNW 12.7 mph - N/A   Clear
6:53 PM 68.0 °F - 23.0 °F 18% 29.83 in 10.0 mi West 8.1 mph - N/A   Clear
7:53 PM 64.0 °F - 23.0 °F 21% 29.84 in 10.0 mi SSW 8.1 mph - N/A   Clear
8:53 PM 59.0 °F - 23.0 °F 25% 29.86 in 10.0 mi SW 10.4 mph - N/A   Clear
9:53 PM 59.0 °F - 21.9 °F 24% 29.86 in 10.0 mi SW 12.7 mph - N/A   Clear
10:53 PM 55.9 °F - 21.9 °F 27% 29.86 in 10.0 mi SW 10.4 mph - N/A   Clear
11:53 PM 43.0 °F 38.8 °F 28.9 °F 58% 29.91 in 10.0 mi ENE 6.9 mph - N/A   Clear